QTR12MG OTHH-LEBL

Flight info

Callsign QTR12MG
Flight time N/A
Altitude 38000
Route DATRI L564 MIGMA M550 MEVDO Y511 PMA Z712 WEJ L677 CVO L617 NABSI M872 METRU DCT ARLOS DCT OLLEK DCT ADEXI DCT ADAMI DCT ALG DCT GINOX DCT KIFMI DCT ELVOP DCT MUREN DCT CHELY DCT VERSO
Aircraft A359/H-SDE2E3GHIJ3J4J5LM1ORWXY/LB1D1

Departure

Time N/A
Airport Hamad International Airport (OTHH)

Arrival

Time 2026-05-06 15:32
Airport Josep Tarradellas Barcelona-El Prat Airport (LEBL)
Time Latitude Longitude Altitude Speed Heading
2026-05-06 10:19 24.03738 40.96017 37994 ft 437 kts 279°
2026-05-06 10:19 24.05528 40.89657 38000 ft 437 kts 279°
2026-05-06 10:20 24.07004 40.84387 37985 ft 435 kts 279°
2026-05-06 10:20 24.08775 40.78051 37985 ft 435 kts 279°
2026-05-06 10:21 24.10541 40.71724 37989 ft 435 kts 279°
2026-05-06 10:21 24.12306 40.65394 37983 ft 435 kts 279°
2026-05-06 10:22 24.14069 40.59064 37986 ft 435 kts 279°
2026-05-06 10:22 24.15879 40.52741 37983 ft 438 kts 283°
2026-05-06 10:23 24.18487 40.46629 38006 ft 445 kts 289°
2026-05-06 10:23 24.21350 40.40621 37979 ft 445 kts 289°
2026-05-06 10:24 24.24243 40.34639 37982 ft 444 kts 289°
2026-05-06 10:24 24.27122 40.28655 37978 ft 444 kts 289°
2026-05-06 10:25 24.29989 40.22663 37989 ft 443 kts 289°
2026-05-06 10:25 24.32846 40.16678 37982 ft 443 kts 289°
2026-05-06 10:26 24.35696 40.10699 37982 ft 442 kts 289°
2026-05-06 10:26 24.38542 40.04721 37982 ft 442 kts 289°
2026-05-06 10:27 24.41387 39.98739 37974 ft 442 kts 289°
2026-05-06 10:27 24.44207 39.92803 37971 ft 441 kts 289°
2026-05-06 10:28 24.47062 39.86785 37969 ft 441 kts 289°
2026-05-06 10:28 24.49894 39.80806 37966 ft 441 kts 289°
2026-05-06 10:29 24.52730 39.74885 37963 ft 443 kts 291°
2026-05-06 10:29 24.56584 39.69386 37965 ft 464 kts 306°
2026-05-06 10:30 24.61691 39.64875 37979 ft 475 kts 313°
2026-05-06 10:30 24.67069 39.60612 37980 ft 477 kts 314°
2026-05-06 10:31 24.72460 39.56375 37976 ft 476 kts 314°
2026-05-06 10:31 24.77789 39.52140 37971 ft 476 kts 313°
2026-05-06 10:32 24.83145 39.47854 37965 ft 476 kts 313°
2026-05-06 10:32 24.88489 39.43568 37975 ft 476 kts 313°
2026-05-06 10:33 24.93847 39.39265 37968 ft 476 kts 313°
2026-05-06 10:33 24.99197 39.34964 38001 ft 476 kts 313°
2026-05-06 10:34 25.04549 39.30660 37978 ft 477 kts 313°
2026-05-06 10:34 25.09907 39.26347 37970 ft 477 kts 313°
2026-05-06 10:35 25.15261 39.22032 37975 ft 477 kts 313°
2026-05-06 10:35 25.20509 39.17610 37987 ft 467 kts 307°
2026-05-06 10:36 25.22737 39.15070 37973 ft 455 kts 299°
2026-05-06 10:36 25.24614 39.12294 37973 ft 448 kts 295°
2026-05-06 10:36 25.28059 39.06582 37982 ft 447 kts 293°
2026-05-06 10:37 25.31407 39.00801 37976 ft 447 kts 292°
2026-05-06 10:37 25.34763 38.95003 37975 ft 447 kts 293°
2026-05-06 10:38 25.38108 38.89256 37967 ft 447 kts 293°
2026-05-06 10:38 25.41483 38.83467 37959 ft 448 kts 293°
2026-05-06 10:39 25.44865 38.77661 37959 ft 449 kts 293°
2026-05-06 10:39 25.48245 38.71854 37954 ft 449 kts 293°
2026-05-06 10:40 25.51618 38.66048 37956 ft 448 kts 293°
2026-05-06 10:40 25.54988 38.60238 37948 ft 449 kts 293°
2026-05-06 10:41 25.58366 38.54407 37943 ft 449 kts 293°
2026-05-06 10:41 25.61737 38.48582 37947 ft 449 kts 293°
2026-05-06 10:42 25.65109 38.42749 37938 ft 449 kts 293°
2026-05-06 10:42 25.68478 38.36913 37974 ft 450 kts 293°
2026-05-06 10:43 25.71841 38.31081 37943 ft 449 kts 293°
2026-05-06 10:44 25.76886 38.22315 37937 ft 449 kts 293°
2026-05-06 10:44 25.80250 38.16458 37941 ft 450 kts 293°
2026-05-06 10:45 25.83607 38.10616 37933 ft 448 kts 293°
2026-05-06 10:45 25.86954 38.04779 37936 ft 449 kts 293°
2026-05-06 10:46 25.90280 37.98967 37965 ft 449 kts 294°
2026-05-06 10:46 25.93624 37.93118 37959 ft 449 kts 294°
2026-05-06 10:47 25.96974 37.87250 37964 ft 451 kts 294°
2026-05-06 10:47 25.99917 37.81140 37971 ft 438 kts 283°
2026-05-06 10:48 26.01375 37.74729 37968 ft 428 kts 274°
2026-05-06 10:48 26.02305 37.68202 37977 ft 427 kts 272°
2026-05-06 10:49 26.03160 37.61655 37971 ft 428 kts 272°
2026-05-06 10:49 26.04019 37.55111 37975 ft 428 kts 272°
2026-05-06 10:50 26.04895 37.48564 37965 ft 428 kts 272°
2026-05-06 10:50 26.05776 37.42017 37963 ft 428 kts 272°
2026-05-06 10:51 26.06651 37.35467 37968 ft 428 kts 272°
2026-05-06 10:51 26.07522 37.28917 37960 ft 428 kts 272°
2026-05-06 10:52 26.08391 37.22362 37970 ft 429 kts 272°
2026-05-06 10:52 26.09258 37.15802 37954 ft 429 kts 272°
2026-05-06 10:53 26.10124 37.09234 37949 ft 429 kts 272°
2026-05-06 10:53 26.10987 37.02660 37943 ft 429 kts 272°
2026-05-06 10:54 26.11846 36.96096 37951 ft 429 kts 272°
2026-05-06 10:54 26.12703 36.89512 37915 ft 430 kts 272°
2026-05-06 10:55 26.13558 36.82926 37949 ft 430 kts 272°
2026-05-06 10:55 26.14410 36.76345 37945 ft 429 kts 272°
2026-05-06 10:56 26.15257 36.69766 37947 ft 430 kts 272°
2026-05-06 10:56 26.16104 36.63164 37949 ft 431 kts 272°
2026-05-06 10:57 26.16958 36.56549 37948 ft 432 kts 274°
2026-05-06 10:57 26.18622 36.50099 37952 ft 444 kts 287°
2026-05-06 10:58 26.21973 36.44205 37940 ft 462 kts 303°
2026-05-06 10:58 26.26374 36.38942 37939 ft 467 kts 306°
2026-05-06 10:59 26.30938 36.33769 37946 ft 467 kts 306°
2026-05-06 10:59 26.35480 36.28598 37947 ft 467 kts 306°
2026-05-06 11:00 26.40010 36.23385 37959 ft 467 kts 306°
2026-05-06 11:00 26.44517 36.18172 37960 ft 466 kts 306°
2026-05-06 11:01 26.49018 36.12957 37959 ft 466 kts 306°
2026-05-06 11:01 26.53513 36.07743 37958 ft 466 kts 306°
2026-05-06 11:02 26.58010 36.02523 37955 ft 466 kts 306°
2026-05-06 11:02 26.62507 35.97296 37958 ft 466 kts 306°
2026-05-06 11:03 26.66999 35.92070 37977 ft 466 kts 306°
2026-05-06 11:03 26.71484 35.86844 37952 ft 466 kts 306°
2026-05-06 11:04 26.75969 35.81613 37969 ft 466 kts 306°
2026-05-06 11:04 26.80450 35.76381 37969 ft 466 kts 306°
2026-05-06 11:05 26.84935 35.71139 37961 ft 465 kts 306°
2026-05-06 11:05 26.89405 35.65905 37981 ft 465 kts 306°
2026-05-06 11:06 26.93877 35.60664 37964 ft 465 kts 306°
2026-05-06 11:06 26.98347 35.55419 37962 ft 465 kts 306°
2026-05-06 11:07 27.02813 35.50171 37964 ft 465 kts 306°
2026-05-06 11:07 27.06523 35.45808 37972 ft 465 kts 307°
2026-05-06 11:08 27.10977 35.40564 37968 ft 465 kts 307°
2026-05-06 11:08 27.15437 35.35306 37968 ft 465 kts 307°
2026-05-06 11:09 27.19892 35.30048 37968 ft 464 kts 307°
2026-05-06 11:09 27.24338 35.24793 37970 ft 464 kts 307°
2026-05-06 11:10 27.28785 35.19531 37965 ft 464 kts 307°
2026-05-06 11:10 27.33224 35.14272 37964 ft 463 kts 307°
2026-05-06 11:11 27.37656 35.09015 37968 ft 463 kts 307°
2026-05-06 11:11 27.42087 35.03750 37975 ft 463 kts 307°
2026-05-06 11:12 27.46524 34.98473 37977 ft 464 kts 307°
2026-05-06 11:12 27.50961 34.93192 37968 ft 463 kts 307°
2026-05-06 11:13 27.55545 34.88063 37967 ft 466 kts 310°
2026-05-06 11:13 27.60342 34.83123 37976 ft 467 kts 311°
2026-05-06 11:14 27.65127 34.78172 37973 ft 467 kts 310°
2026-05-06 11:14 27.69872 34.73181 37995 ft 466 kts 310°
2026-05-06 11:15 27.74595 34.68175 37981 ft 465 kts 310°
2026-05-06 11:15 27.79306 34.63171 38002 ft 465 kts 310°
2026-05-06 11:16 27.84015 34.58164 38005 ft 465 kts 310°
2026-05-06 11:16 27.88727 34.53151 38039 ft 465 kts 310°
2026-05-06 11:17 27.93439 34.48133 38053 ft 465 kts 310°
2026-05-06 11:17 27.98140 34.43119 38059 ft 464 kts 311°
2026-05-06 11:18 28.02415 34.37739 38039 ft 458 kts 304°
2026-05-06 11:18 28.06468 34.32186 38039 ft 457 kts 303°
2026-05-06 11:19 28.10460 34.26637 38048 ft 457 kts 303°
2026-05-06 11:19 28.14481 34.21049 38028 ft 457 kts 304°
2026-05-06 11:20 28.18527 34.15431 38013 ft 457 kts 304°
2026-05-06 11:20 28.22539 34.09857 38021 ft 457 kts 304°
2026-05-06 11:21 28.26555 34.04273 38016 ft 456 kts 304°
2026-05-06 11:21 28.30546 33.98711 38025 ft 459 kts 304°
2026-05-06 11:22 28.34568 33.93099 38023 ft 457 kts 304°
2026-05-06 11:22 28.38593 33.87481 38026 ft 455 kts 304°
2026-05-06 11:23 28.42587 33.81898 38029 ft 455 kts 304°
2026-05-06 11:23 28.46573 33.76319 38023 ft 455 kts 304°
2026-05-06 11:24 28.50536 33.70760 38012 ft 455 kts 304°
2026-05-06 11:24 28.54522 33.65164 38023 ft 455 kts 304°
2026-05-06 11:25 28.58493 33.59589 38011 ft 453 kts 304°
2026-05-06 11:25 28.62448 33.54023 38019 ft 452 kts 304°
2026-05-06 11:26 28.66403 33.48458 38008 ft 452 kts 304°
2026-05-06 11:26 28.70350 33.42881 38009 ft 452 kts 304°
2026-05-06 11:27 28.74293 33.37306 38030 ft 452 kts 304°
2026-05-06 11:27 28.78236 33.31726 38020 ft 452 kts 304°
2026-05-06 11:28 28.82176 33.26144 38029 ft 452 kts 304°
2026-05-06 11:28 28.86115 33.20555 38031 ft 452 kts 304°
2026-05-06 11:29 28.90053 33.14961 38031 ft 452 kts 304°
2026-05-06 11:29 28.93980 33.09375 38028 ft 451 kts 304°
2026-05-06 11:30 28.97900 33.03792 38035 ft 451 kts 304°
2026-05-06 11:30 29.01818 32.98203 38034 ft 450 kts 304°
2026-05-06 11:31 29.05730 32.92614 38042 ft 450 kts 304°
2026-05-06 11:31 29.09645 32.87016 38043 ft 450 kts 304°
2026-05-06 11:32 29.13550 32.81423 38050 ft 450 kts 304°
2026-05-06 11:32 29.17454 32.75825 38051 ft 450 kts 304°
2026-05-06 11:33 29.21349 32.70230 38059 ft 450 kts 304°
2026-05-06 11:33 29.25245 32.64628 38060 ft 450 kts 304°
2026-05-06 11:34 29.29142 32.59019 38064 ft 449 kts 304°
2026-05-06 11:34 29.33010 32.53408 38071 ft 448 kts 304°
2026-05-06 11:35 29.36858 32.47785 38074 ft 448 kts 304°
2026-05-06 11:35 29.40705 32.42161 38071 ft 448 kts 304°
2026-05-06 11:36 29.44553 32.36535 38077 ft 448 kts 304°
2026-05-06 11:36 29.48372 32.30949 38071 ft 447 kts 304°
2026-05-06 11:37 29.52203 32.25337 38080 ft 446 kts 304°
2026-05-06 11:37 29.56026 32.19729 38083 ft 446 kts 304°
2026-05-06 11:38 29.59850 32.14111 38088 ft 446 kts 304°
2026-05-06 11:38 29.63667 32.08497 38086 ft 446 kts 304°
2026-05-06 11:39 29.67482 32.02876 38089 ft 445 kts 304°
2026-05-06 11:39 29.71281 31.97273 38089 ft 444 kts 304°
2026-05-06 11:40 29.75076 31.91668 38122 ft 444 kts 304°
2026-05-06 11:40 29.78866 31.86063 38095 ft 444 kts 304°
2026-05-06 11:41 29.82578 31.80398 38099 ft 443 kts 302°
2026-05-06 11:41 29.86226 31.74688 38098 ft 442 kts 302°
2026-05-06 11:42 29.89869 31.69003 38097 ft 441 kts 302°
2026-05-06 11:42 29.93531 31.63309 38095 ft 441 kts 303°
2026-05-06 11:43 29.97188 31.57627 38081 ft 441 kts 303°
2026-05-06 11:43 30.00844 31.51938 38086 ft 441 kts 302°
2026-05-06 11:44 30.06320 31.43404 38074 ft 440 kts 303°
2026-05-06 11:44 30.10209 31.37928 38084 ft 445 kts 311°
2026-05-06 11:45 30.14672 31.32968 38074 ft 446 kts 312°
2026-05-06 11:45 30.19222 31.28093 38076 ft 446 kts 313°
2026-05-06 11:46 30.23783 31.23221 38079 ft 446 kts 312°
2026-05-06 11:46 30.28317 31.18353 38076 ft 445 kts 312°
2026-05-06 11:47 30.32847 31.13472 38075 ft 445 kts 312°
2026-05-06 11:47 30.37371 31.08587 38072 ft 445 kts 312°
2026-05-06 11:48 30.41893 31.03699 38078 ft 445 kts 312°
2026-05-06 11:48 30.46383 30.98839 38078 ft 445 kts 312°
2026-05-06 11:49 30.50901 30.93943 38071 ft 444 kts 312°
2026-05-06 11:49 30.55414 30.89047 38075 ft 444 kts 312°
2026-05-06 11:50 30.59926 30.84144 38074 ft 444 kts 312°
2026-05-06 11:50 30.64435 30.79238 38076 ft 444 kts 312°
2026-05-06 11:51 30.68941 30.74329 38073 ft 444 kts 312°
2026-05-06 11:51 30.73444 30.69417 38080 ft 444 kts 312°
2026-05-06 11:52 30.77949 30.64496 38080 ft 444 kts 312°
2026-05-06 11:52 30.82447 30.59575 38079 ft 444 kts 312°
2026-05-06 11:53 30.86221 30.55443 38083 ft 444 kts 312°
2026-05-06 11:53 30.90716 30.50512 38084 ft 444 kts 312°
2026-05-06 11:54 30.95208 30.45580 38082 ft 444 kts 312°
2026-05-06 11:54 30.99700 30.40641 38088 ft 444 kts 312°
2026-05-06 11:55 31.04189 30.35700 38090 ft 444 kts 312°
2026-05-06 11:55 31.08226 30.30340 38091 ft 438 kts 301°
2026-05-06 11:56 31.10877 30.24018 38101 ft 433 kts 288°
2026-05-06 11:56 31.12780 30.17346 38104 ft 433 kts 286°
2026-05-06 11:57 31.14571 30.10634 38108 ft 433 kts 286°
2026-05-06 11:57 31.16355 30.03959 38108 ft 434 kts 286°
2026-05-06 11:58 31.18262 29.97284 38102 ft 435 kts 291°
2026-05-06 11:58 31.21251 29.91119 38101 ft 438 kts 301°
2026-05-06 11:59 31.24795 29.85318 38104 ft 439 kts 303°
2026-05-06 11:59 31.28420 29.79566 38123 ft 440 kts 303°
2026-05-06 12:00 31.32040 29.73803 38110 ft 439 kts 303°
2026-05-06 12:00 31.35640 29.68030 38114 ft 439 kts 303°
2026-05-06 12:01 31.39226 29.62257 38115 ft 439 kts 303°
2026-05-06 12:01 31.42819 29.56461 38116 ft 439 kts 303°
2026-05-06 12:02 31.46407 29.50667 38123 ft 439 kts 303°
2026-05-06 12:02 31.49991 29.44873 38118 ft 439 kts 303°
2026-05-06 12:03 31.53568 29.39080 38115 ft 439 kts 303°
2026-05-06 12:03 31.57144 29.33281 38118 ft 439 kts 303°
2026-05-06 12:04 31.60715 29.27481 38117 ft 439 kts 303°
2026-05-06 12:04 31.64279 29.21664 38118 ft 439 kts 303°
2026-05-06 12:05 31.67817 29.15878 38118 ft 439 kts 303°
2026-05-06 12:05 31.71400 29.10013 38118 ft 439 kts 303°
2026-05-06 12:06 31.74961 29.04187 38120 ft 439 kts 303°
2026-05-06 12:06 31.78493 28.98391 38102 ft 439 kts 303°
2026-05-06 12:07 31.82041 28.92552 38113 ft 439 kts 303°
2026-05-06 12:07 31.85593 28.86704 38101 ft 439 kts 303°
2026-05-06 12:08 31.89142 28.80852 38114 ft 439 kts 303°
2026-05-06 12:08 31.92690 28.74993 38114 ft 439 kts 303°
2026-05-06 12:09 31.96235 28.69132 38115 ft 439 kts 303°
2026-05-06 12:09 31.99775 28.63268 38112 ft 440 kts 303°
2026-05-06 12:10 32.03320 28.57387 38118 ft 440 kts 303°
2026-05-06 12:10 32.06864 28.51499 38118 ft 440 kts 303°
2026-05-06 12:11 32.10404 28.45610 38115 ft 440 kts 303°
2026-05-06 12:11 32.13941 28.39716 38116 ft 440 kts 303°
2026-05-06 12:12 32.17477 28.33813 38123 ft 441 kts 303°
2026-05-06 12:12 32.21015 28.27899 38126 ft 441 kts 303°
2026-05-06 12:13 32.24556 28.21971 38113 ft 442 kts 303°
2026-05-06 12:13 32.28094 28.16038 38114 ft 442 kts 303°
2026-05-06 12:14 32.31628 28.10103 38116 ft 442 kts 303°
2026-05-06 12:14 32.35160 28.04162 38116 ft 442 kts 303°
2026-05-06 12:15 32.38697 27.98202 38116 ft 442 kts 303°
2026-05-06 12:15 32.42229 27.92242 38116 ft 443 kts 303°
2026-05-06 12:16 32.45762 27.86271 38116 ft 443 kts 303°
2026-05-06 12:16 32.49287 27.80304 38134 ft 443 kts 303°
2026-05-06 12:17 32.52814 27.74325 38113 ft 442 kts 303°
2026-05-06 12:17 32.56332 27.68350 38115 ft 442 kts 303°
2026-05-06 12:18 32.59846 27.62374 38115 ft 442 kts 303°
2026-05-06 12:18 32.63356 27.56393 38114 ft 442 kts 303°
2026-05-06 12:19 32.66843 27.50444 38116 ft 442 kts 303°
2026-05-06 12:19 32.70350 27.44451 38116 ft 442 kts 303°
2026-05-06 12:20 32.73861 27.38441 38116 ft 443 kts 303°
2026-05-06 12:20 32.77369 27.32426 38119 ft 443 kts 303°
2026-05-06 12:21 32.80872 27.26412 38116 ft 443 kts 303°
2026-05-06 12:21 32.84375 27.20387 38117 ft 443 kts 303°
2026-05-06 12:22 32.87874 27.14358 38115 ft 443 kts 303°
2026-05-06 12:22 32.91375 27.08317 38119 ft 444 kts 303°
2026-05-06 12:23 32.94873 27.02272 38119 ft 444 kts 303°
2026-05-06 12:23 32.98371 26.96217 38116 ft 444 kts 303°
2026-05-06 12:24 33.01859 26.90151 38117 ft 444 kts 303°
2026-05-06 12:24 33.05338 26.84074 38117 ft 444 kts 303°
2026-05-06 12:25 33.08824 26.77980 38116 ft 445 kts 303°
2026-05-06 12:25 33.12309 26.71881 38116 ft 445 kts 302°
2026-05-06 12:26 33.15795 26.65773 38119 ft 445 kts 302°
2026-05-06 12:26 33.19273 26.59666 38117 ft 445 kts 302°
2026-05-06 12:27 33.22755 26.53544 38118 ft 445 kts 302°
2026-05-06 12:27 33.26233 26.47419 38119 ft 446 kts 302°
2026-05-06 12:28 33.29712 26.41281 38114 ft 446 kts 302°
2026-05-06 12:28 33.33183 26.35146 38120 ft 446 kts 302°
2026-05-06 12:29 33.36652 26.29005 38120 ft 445 kts 302°
2026-05-06 12:29 33.40121 26.22856 38117 ft 446 kts 302°
2026-05-06 12:30 33.43587 26.16699 38118 ft 446 kts 302°
2026-05-06 12:30 33.47054 26.10530 38116 ft 446 kts 302°
2026-05-06 12:31 33.50517 26.04359 38122 ft 446 kts 302°
2026-05-06 12:31 33.53979 25.98180 38122 ft 447 kts 302°
2026-05-06 12:32 33.57440 25.91992 38118 ft 447 kts 302°
2026-05-06 12:32 33.60904 25.85787 38118 ft 448 kts 302°
2026-05-06 12:33 33.64369 25.79571 38116 ft 448 kts 302°
2026-05-06 12:33 33.67830 25.73350 38120 ft 448 kts 302°
2026-05-06 12:34 33.71288 25.67125 38114 ft 448 kts 302°
2026-05-06 12:34 33.74736 25.60906 38115 ft 448 kts 302°
2026-05-06 12:35 33.78190 25.54668 38116 ft 448 kts 302°
2026-05-06 12:35 33.81642 25.48421 38121 ft 449 kts 302°
2026-05-06 12:36 33.85088 25.42174 38118 ft 449 kts 302°
2026-05-06 12:36 33.88539 25.35908 38118 ft 449 kts 302°
2026-05-06 12:37 33.91959 25.29688 38116 ft 449 kts 302°
2026-05-06 12:37 33.95398 25.23420 38116 ft 449 kts 302°
2026-05-06 12:38 33.98820 25.17113 38116 ft 449 kts 300°
2026-05-06 12:38 34.01051 25.11432 38115 ft 448 kts 291°
2026-05-06 12:39 34.03246 25.04403 38115 ft 448 kts 290°
2026-05-06 12:39 34.05348 24.97337 38115 ft 448 kts 289°
2026-05-06 12:40 34.07452 24.90243 38116 ft 449 kts 289°
2026-05-06 12:40 34.09564 24.83154 38116 ft 449 kts 289°
2026-05-06 12:41 34.11680 24.76058 38116 ft 449 kts 289°
2026-05-06 12:41 34.13780 24.69002 38116 ft 449 kts 289°
2026-05-06 12:42 34.15886 24.61904 38118 ft 449 kts 289°
2026-05-06 12:42 34.17988 24.54803 38118 ft 449 kts 289°
2026-05-06 12:43 34.20087 24.47695 38121 ft 449 kts 289°
2026-05-06 12:43 34.22182 24.40580 38118 ft 449 kts 289°
2026-05-06 12:44 34.24272 24.33465 38119 ft 450 kts 289°
2026-05-06 12:44 34.26363 24.26331 38118 ft 450 kts 289°
2026-05-06 12:45 34.28450 24.19195 38119 ft 450 kts 289°
2026-05-06 12:46 34.31574 24.08476 38116 ft 450 kts 289°
2026-05-06 12:46 34.33651 24.01326 38118 ft 451 kts 289°
2026-05-06 12:47 34.35726 23.94169 38117 ft 451 kts 289°
2026-05-06 12:47 34.37798 23.87001 38118 ft 451 kts 289°
2026-05-06 12:48 34.39864 23.79837 38120 ft 451 kts 289°
2026-05-06 12:48 34.41926 23.72667 38121 ft 451 kts 289°
2026-05-06 12:49 34.43988 23.65481 38121 ft 452 kts 289°
2026-05-06 12:49 34.46046 23.58290 38127 ft 452 kts 289°
2026-05-06 12:50 34.48100 23.51094 38121 ft 452 kts 289°
2026-05-06 12:50 34.50151 23.43893 38121 ft 452 kts 289°
2026-05-06 12:51 34.52195 23.36696 38124 ft 452 kts 289°
2026-05-06 12:51 34.54240 23.29475 38124 ft 452 kts 289°
2026-05-06 12:52 34.56281 23.22254 38120 ft 452 kts 289°
2026-05-06 12:52 34.58315 23.15036 38121 ft 453 kts 289°
2026-05-06 12:53 34.60347 23.07808 38121 ft 453 kts 288°
2026-05-06 12:53 34.62375 23.00574 38121 ft 453 kts 288°
2026-05-06 12:54 34.64350 22.93304 38124 ft 453 kts 287°
2026-05-06 12:54 34.66236 22.86012 38124 ft 453 kts 287°
2026-05-06 12:55 34.68120 22.78721 38120 ft 453 kts 287°
2026-05-06 12:55 34.70019 22.71414 38121 ft 453 kts 287°
2026-05-06 12:56 34.71920 22.64109 38123 ft 453 kts 287°
2026-05-06 12:56 34.73816 22.56802 38124 ft 454 kts 287°
2026-05-06 12:57 34.75710 22.49484 38127 ft 454 kts 287°
2026-05-06 12:57 34.77598 22.42166 38126 ft 454 kts 287°
2026-05-06 12:58 34.79484 22.34834 38124 ft 454 kts 287°
2026-05-06 12:58 34.81366 22.27497 38121 ft 454 kts 287°
2026-05-06 12:59 34.83243 22.20158 38121 ft 454 kts 287°
2026-05-06 12:59 34.85115 22.12819 38121 ft 454 kts 287°
2026-05-06 13:00 34.86984 22.05472 38123 ft 454 kts 287°
2026-05-06 13:00 34.88850 21.98117 38124 ft 454 kts 287°
2026-05-06 13:01 34.90697 21.90814 38123 ft 454 kts 287°
2026-05-06 13:01 34.92554 21.83452 38121 ft 455 kts 287°
2026-05-06 13:02 34.94407 21.76086 38125 ft 455 kts 287°
2026-05-06 13:02 34.96256 21.68713 38121 ft 455 kts 287°
2026-05-06 13:03 34.98100 21.61338 38121 ft 455 kts 287°
2026-05-06 13:03 34.99939 21.53961 38126 ft 455 kts 287°
2026-05-06 13:04 35.01775 21.46578 38118 ft 455 kts 287°
2026-05-06 13:04 35.03605 21.39197 38121 ft 455 kts 287°
2026-05-06 13:05 35.05431 21.31810 38120 ft 455 kts 286°
2026-05-06 13:05 35.07253 21.24419 38121 ft 455 kts 286°
2026-05-06 13:06 35.09070 21.17025 38121 ft 455 kts 286°
2026-05-06 13:06 35.10884 21.09625 38121 ft 455 kts 286°
2026-05-06 13:07 35.12695 21.02212 38121 ft 455 kts 286°
2026-05-06 13:07 35.14499 20.94807 38121 ft 455 kts 286°
2026-05-06 13:08 35.16301 20.87388 38118 ft 455 kts 286°
2026-05-06 13:08 35.18098 20.79970 38121 ft 455 kts 286°
2026-05-06 13:09 35.19890 20.72549 38120 ft 455 kts 286°
2026-05-06 13:09 35.21674 20.65137 38121 ft 455 kts 286°
2026-05-06 13:10 35.23456 20.57715 38120 ft 455 kts 286°
2026-05-06 13:10 35.25233 20.50287 38118 ft 455 kts 286°
2026-05-06 13:11 35.27005 20.42864 38115 ft 454 kts 285°
2026-05-06 13:11 35.28770 20.35442 38116 ft 454 kts 285°
2026-05-06 13:12 35.30529 20.28026 38117 ft 454 kts 285°
2026-05-06 13:12 35.32281 20.20618 38116 ft 453 kts 285°
2026-05-06 13:13 35.34032 20.13189 38116 ft 453 kts 285°
2026-05-06 13:13 35.35776 20.05770 38116 ft 453 kts 285°
2026-05-06 13:14 35.37516 19.98343 38115 ft 453 kts 285°
2026-05-06 13:14 35.39250 19.90921 38116 ft 453 kts 285°
2026-05-06 13:15 35.40980 19.83493 38117 ft 453 kts 285°
2026-05-06 13:15 35.42706 19.76059 38115 ft 453 kts 285°
2026-05-06 13:16 35.44422 19.68647 38116 ft 452 kts 285°
2026-05-06 13:16 35.46134 19.61231 38116 ft 452 kts 285°
2026-05-06 13:17 35.47828 19.53864 38114 ft 452 kts 285°
2026-05-06 13:17 35.49529 19.46448 38113 ft 452 kts 285°
2026-05-06 13:18 35.51225 19.39034 38109 ft 451 kts 285°
2026-05-06 13:18 35.52912 19.31634 38110 ft 450 kts 285°
2026-05-06 13:19 35.54593 19.24233 38107 ft 450 kts 285°
2026-05-06 13:19 35.56271 19.16828 38108 ft 450 kts 285°
2026-05-06 13:20 35.57943 19.09422 38107 ft 450 kts 285°
2026-05-06 13:20 35.59607 19.02032 38107 ft 448 kts 285°
2026-05-06 13:21 35.61263 18.94652 38106 ft 448 kts 285°
2026-05-06 13:21 35.62915 18.87268 38105 ft 448 kts 285°
2026-05-06 13:22 35.64561 18.79887 38101 ft 448 kts 285°
2026-05-06 13:22 35.65926 18.73749 38102 ft 447 kts 285°
2026-05-06 13:23 35.67559 18.66385 38102 ft 446 kts 285°
2026-05-06 13:23 35.69184 18.59030 38099 ft 446 kts 285°
2026-05-06 13:24 35.70806 18.51670 38091 ft 446 kts 285°
2026-05-06 13:24 35.72424 18.44303 38094 ft 446 kts 285°
2026-05-06 13:25 35.74033 18.36951 38091 ft 444 kts 285°
2026-05-06 13:25 35.75633 18.29620 38094 ft 443 kts 285°
2026-05-06 13:26 35.77226 18.22301 38094 ft 443 kts 285°
2026-05-06 13:26 35.78813 18.14982 38091 ft 442 kts 285°
2026-05-06 13:27 35.80397 18.07653 38086 ft 442 kts 285°
2026-05-06 13:27 35.81974 18.00331 38086 ft 442 kts 285°
2026-05-06 13:28 35.83548 17.93006 38086 ft 442 kts 285°
2026-05-06 13:28 35.85119 17.85666 38080 ft 443 kts 285°
2026-05-06 13:29 35.86684 17.78335 38075 ft 443 kts 285°
2026-05-06 13:29 35.88245 17.70993 38078 ft 442 kts 285°
2026-05-06 13:30 35.89797 17.63675 38077 ft 441 kts 285°
2026-05-06 13:30 35.91340 17.56369 38072 ft 440 kts 285°
2026-05-06 13:31 35.92882 17.49053 38075 ft 440 kts 285°
2026-05-06 13:31 35.94415 17.41746 38067 ft 440 kts 284°
2026-05-06 13:32 35.95936 17.34481 38078 ft 440 kts 284°
2026-05-06 13:32 35.97463 17.27159 38067 ft 441 kts 284°
2026-05-06 13:33 35.98989 17.19820 38065 ft 441 kts 284°
2026-05-06 13:33 36.00509 17.12482 38061 ft 441 kts 284°
2026-05-06 13:34 36.02027 17.05130 38063 ft 441 kts 284°
2026-05-06 13:34 36.03538 16.97790 38056 ft 440 kts 284°
2026-05-06 13:35 36.05041 16.90462 38051 ft 440 kts 284°
2026-05-06 13:35 36.06535 16.83133 38050 ft 440 kts 284°
2026-05-06 13:36 36.08029 16.75799 38047 ft 440 kts 284°
2026-05-06 13:36 36.09522 16.68460 38048 ft 440 kts 284°
2026-05-06 13:37 36.11006 16.61134 38044 ft 439 kts 284°
2026-05-06 13:37 36.12484 16.53809 38042 ft 439 kts 284°
2026-05-06 13:38 36.13956 16.46484 38038 ft 439 kts 284°
2026-05-06 13:38 36.15423 16.39161 38040 ft 439 kts 283°
2026-05-06 13:39 36.16886 16.31830 38037 ft 439 kts 284°
2026-05-06 13:39 36.18349 16.24480 38037 ft 440 kts 284°
2026-05-06 13:40 36.19810 16.17111 38032 ft 441 kts 283°
2026-05-06 13:40 36.21265 16.09748 38034 ft 440 kts 283°
2026-05-06 13:41 36.22716 16.02377 38028 ft 440 kts 283°
2026-05-06 13:41 36.24162 15.95006 38028 ft 441 kts 284°
2026-05-06 13:42 36.25597 15.87669 38027 ft 441 kts 284°
2026-05-06 13:42 36.27037 15.80282 38028 ft 441 kts 284°
2026-05-06 13:43 36.28482 15.72840 38022 ft 441 kts 283°
2026-05-06 13:43 36.29903 15.65495 38023 ft 441 kts 283°
2026-05-06 13:44 36.31334 15.58070 38022 ft 437 kts 284°
2026-05-06 13:44 36.32738 15.50760 38023 ft 435 kts 284°
2026-05-06 13:45 36.34126 15.43513 38020 ft 435 kts 284°
2026-05-06 13:45 36.36212 15.32567 38018 ft 435 kts 283°
2026-05-06 13:46 36.37596 15.25276 38019 ft 433 kts 283°
2026-05-06 13:46 36.38964 15.18036 38017 ft 429 kts 283°
2026-05-06 13:47 36.40323 15.10821 38018 ft 429 kts 283°
2026-05-06 13:47 36.41676 15.03617 38012 ft 429 kts 283°
2026-05-06 13:48 36.43026 14.96403 38012 ft 429 kts 283°
2026-05-06 13:48 36.44368 14.89200 38011 ft 427 kts 283°
2026-05-06 13:49 36.45698 14.82040 38009 ft 424 kts 283°
2026-05-06 13:49 36.47020 14.74898 38009 ft 424 kts 283°
2026-05-06 13:50 36.48337 14.67759 38010 ft 424 kts 283°
2026-05-06 13:50 36.49834 14.60674 38004 ft 424 kts 289°
2026-05-06 13:51 36.52527 14.54147 38004 ft 426 kts 300°
2026-05-06 13:51 36.55832 14.48013 38004 ft 427 kts 302°
2026-05-06 13:52 36.59219 14.41944 38004 ft 427 kts 302°
2026-05-06 13:52 36.62602 14.35859 38001 ft 427 kts 302°
2026-05-06 13:53 36.65969 14.29751 38001 ft 427 kts 302°
2026-05-06 13:53 36.69320 14.23644 38001 ft 427 kts 302°
2026-05-06 13:54 36.72674 14.17523 37999 ft 427 kts 301°
2026-05-06 13:54 36.76025 14.11394 37998 ft 428 kts 301°
2026-05-06 13:55 36.79372 14.05264 37996 ft 428 kts 301°
2026-05-06 13:55 36.82718 13.99125 37996 ft 428 kts 301°
2026-05-06 13:56 36.86057 13.92987 37996 ft 428 kts 301°
2026-05-06 13:56 36.89397 13.86836 37993 ft 428 kts 301°
2026-05-06 13:57 36.92733 13.80681 38001 ft 429 kts 300°
2026-05-06 13:57 36.96075 13.74502 37990 ft 429 kts 300°
2026-05-06 13:58 36.99418 13.68313 37991 ft 430 kts 300°
2026-05-06 13:58 37.02761 13.62111 37990 ft 430 kts 300°
2026-05-06 13:59 37.06097 13.55913 37994 ft 430 kts 300°
2026-05-06 13:59 37.09434 13.49699 37988 ft 430 kts 300°
2026-05-06 14:00 37.12747 13.43517 37992 ft 431 kts 299°
2026-05-06 14:00 37.16094 13.37261 37995 ft 432 kts 299°
2026-05-06 14:01 37.19437 13.31002 37987 ft 432 kts 299°
2026-05-06 14:01 37.22779 13.24735 37987 ft 432 kts 300°
2026-05-06 14:02 37.26113 13.18469 37982 ft 431 kts 299°
2026-05-06 14:02 37.29440 13.12203 37992 ft 432 kts 299°
2026-05-06 14:03 37.32767 13.05926 37979 ft 432 kts 299°
2026-05-06 14:03 37.36387 12.99863 37980 ft 435 kts 304°
2026-05-06 14:04 37.40282 12.94014 37985 ft 436 kts 305°
2026-05-06 14:04 37.44211 12.88198 37980 ft 437 kts 305°
2026-05-06 14:05 37.48146 12.82364 37979 ft 437 kts 305°
2026-05-06 14:05 37.52071 12.76521 37974 ft 437 kts 304°
2026-05-06 14:06 37.56002 12.70648 37975 ft 441 kts 304°
2026-05-06 14:06 37.59962 12.64721 37976 ft 442 kts 304°
2026-05-06 14:07 37.63925 12.58785 37978 ft 442 kts 304°
2026-05-06 14:07 37.67885 12.52841 37984 ft 442 kts 304°
2026-05-06 14:08 37.71173 12.47897 37980 ft 442 kts 304°
2026-05-06 14:08 37.75128 12.41940 37984 ft 442 kts 304°
2026-05-06 14:09 37.79085 12.35967 37975 ft 445 kts 304°
2026-05-06 14:09 37.83066 12.29946 37971 ft 447 kts 304°
2026-05-06 14:10 37.87049 12.23915 37966 ft 447 kts 304°
2026-05-06 14:10 37.91033 12.17870 37943 ft 447 kts 304°
2026-05-06 14:11 37.95016 12.11817 37941 ft 447 kts 304°
2026-05-06 14:11 37.98993 12.05759 37963 ft 447 kts 304°
2026-05-06 14:12 38.02974 11.99687 37954 ft 450 kts 303°
2026-05-06 14:12 38.06975 11.93565 37957 ft 450 kts 303°
2026-05-06 14:13 38.10968 11.87451 37958 ft 449 kts 303°
2026-05-06 14:13 38.14949 11.81343 37959 ft 449 kts 303°
2026-05-06 14:14 38.18929 11.75223 37966 ft 449 kts 303°
2026-05-06 14:14 38.22907 11.69094 37964 ft 449 kts 303°
2026-05-06 14:15 38.26886 11.62953 37967 ft 451 kts 303°
2026-05-06 14:15 38.30880 11.56775 37967 ft 452 kts 303°
2026-05-06 14:16 38.34870 11.50596 37969 ft 451 kts 303°
2026-05-06 14:16 38.38844 11.44430 37971 ft 450 kts 303°
2026-05-06 14:17 38.42810 11.38262 37975 ft 450 kts 303°
2026-05-06 14:17 38.46774 11.32084 37970 ft 450 kts 303°
2026-05-06 14:18 38.50734 11.25901 37976 ft 451 kts 303°
2026-05-06 14:18 38.54703 11.19691 37975 ft 452 kts 303°
2026-05-06 14:19 38.58672 11.13471 37974 ft 452 kts 303°
2026-05-06 14:19 38.62635 11.07250 37969 ft 451 kts 303°
2026-05-06 14:20 38.66599 11.01014 37970 ft 451 kts 303°
2026-05-06 14:20 38.70529 10.94819 37970 ft 451 kts 303°
2026-05-06 14:21 38.74727 10.88785 37969 ft 456 kts 307°
2026-05-06 14:21 38.79174 10.82987 37965 ft 456 kts 308°
2026-05-06 14:22 38.83596 10.77161 37968 ft 456 kts 307°
2026-05-06 14:22 38.87965 10.71281 37973 ft 455 kts 307°
2026-05-06 14:23 38.92313 10.65373 37973 ft 455 kts 307°
2026-05-06 14:23 38.96655 10.59458 37973 ft 455 kts 307°
2026-05-06 14:24 39.00997 10.53536 37976 ft 456 kts 306°
2026-05-06 14:24 39.05356 10.47581 37972 ft 458 kts 306°
2026-05-06 14:25 39.09717 10.41614 37969 ft 458 kts 306°
2026-05-06 14:25 39.14075 10.35642 37972 ft 458 kts 306°
2026-05-06 14:26 39.18436 10.29651 37967 ft 458 kts 306°
2026-05-06 14:26 39.22794 10.23653 37966 ft 458 kts 306°
2026-05-06 14:27 39.27155 10.17639 37967 ft 459 kts 306°
2026-05-06 14:27 39.31517 10.11611 37963 ft 460 kts 306°
2026-05-06 14:28 39.35879 10.05574 37966 ft 460 kts 306°
2026-05-06 14:28 39.40236 9.99531 37966 ft 459 kts 306°
2026-05-06 14:29 39.44584 9.93490 37965 ft 458 kts 306°
2026-05-06 14:29 39.48891 9.87491 37966 ft 458 kts 306°
2026-05-06 14:30 39.53254 9.81402 37972 ft 458 kts 306°
2026-05-06 14:30 39.57569 9.75369 37963 ft 460 kts 306°
2026-05-06 14:31 39.61914 9.69281 37963 ft 460 kts 306°
2026-05-06 14:31 39.66289 9.63140 37960 ft 461 kts 306°
2026-05-06 14:32 39.70625 9.57041 37964 ft 463 kts 306°
2026-05-06 14:32 39.74983 9.50902 37965 ft 462 kts 306°
2026-05-06 14:33 39.79338 9.44752 37971 ft 462 kts 306°
2026-05-06 14:33 39.83696 9.38584 37975 ft 464 kts 306°
2026-05-06 14:34 39.88062 9.32395 37990 ft 464 kts 306°
2026-05-06 14:34 39.92429 9.26192 37963 ft 464 kts 306°
2026-05-06 14:35 39.96794 9.19978 37961 ft 465 kts 306°
2026-05-06 14:35 40.01165 9.13742 37961 ft 465 kts 306°
2026-05-06 14:36 40.05526 9.07509 37970 ft 466 kts 306°
2026-05-06 14:36 40.09896 9.01247 37958 ft 467 kts 306°
2026-05-06 14:37 40.14274 8.94963 37959 ft 467 kts 306°
2026-05-06 14:37 40.18652 8.88666 37955 ft 468 kts 306°
2026-05-06 14:38 40.23032 8.82354 37952 ft 469 kts 306°
2026-05-06 14:38 40.27413 8.76028 37956 ft 469 kts 306°
2026-05-06 14:39 40.31788 8.69697 37951 ft 469 kts 306°
2026-05-06 14:39 40.36158 8.63357 37950 ft 468 kts 306°
2026-05-06 14:40 40.40518 8.57022 37950 ft 468 kts 306°
2026-05-06 14:40 40.44877 8.50673 37946 ft 468 kts 306°
2026-05-06 14:41 40.49201 8.44361 37950 ft 468 kts 306°
2026-05-06 14:41 40.53547 8.38005 37964 ft 468 kts 306°
2026-05-06 14:42 40.57894 8.31636 37974 ft 467 kts 306°
2026-05-06 14:42 40.62286 8.25320 37969 ft 471 kts 309°
2026-05-06 14:43 40.67315 8.19705 37966 ft 476 kts 314°
2026-05-06 14:43 40.72507 8.14279 37961 ft 477 kts 315°
2026-05-06 14:44 40.77728 8.08875 37960 ft 477 kts 315°
2026-05-06 14:45 40.84333 7.99492 37953 ft 457 kts 294°
2026-05-06 14:45 40.86635 7.91841 37957 ft 443 kts 277°
2026-05-06 14:46 40.87440 7.83837 37950 ft 439 kts 271°
2026-05-06 14:46 40.87962 7.75791 37951 ft 439 kts 270°
2026-05-06 14:47 40.88463 7.67744 37949 ft 439 kts 270°
2026-05-06 14:47 40.88986 7.59696 37950 ft 439 kts 270°
2026-05-06 14:48 40.89517 7.51647 37952 ft 440 kts 270°
2026-05-06 14:48 40.90045 7.43588 37952 ft 440 kts 270°
2026-05-06 14:49 40.90568 7.35527 37949 ft 440 kts 270°
2026-05-06 14:49 40.91084 7.27465 37950 ft 440 kts 270°
2026-05-06 14:50 40.91594 7.19401 37950 ft 440 kts 270°
2026-05-06 14:50 40.92098 7.11345 37952 ft 440 kts 270°
2026-05-06 14:51 40.92597 7.03277 37952 ft 440 kts 270°
2026-05-06 14:51 40.93089 6.95218 37949 ft 440 kts 270°
2026-05-06 14:52 40.93577 6.87146 37949 ft 440 kts 270°
2026-05-06 14:52 40.94059 6.79083 37949 ft 439 kts 270°
2026-05-06 14:53 40.94534 6.71032 37954 ft 439 kts 270°
2026-05-06 14:53 40.95004 6.62981 37954 ft 439 kts 270°
2026-05-06 14:54 40.95390 6.56289 37952 ft 439 kts 270°
2026-05-06 14:54 40.95849 6.48233 37950 ft 439 kts 270°
2026-05-06 14:55 40.96303 6.40186 37953 ft 439 kts 270°
2026-05-06 14:55 40.96751 6.32135 37952 ft 438 kts 270°
2026-05-06 14:56 40.97192 6.24095 37953 ft 438 kts 270°
2026-05-06 14:56 40.97629 6.16044 37953 ft 438 kts 270°
2026-05-06 14:57 40.98059 6.07998 37978 ft 438 kts 270°
2026-05-06 14:57 40.98484 5.99968 37952 ft 437 kts 270°
2026-05-06 14:58 40.98902 5.91955 37954 ft 436 kts 270°
2026-05-06 14:58 40.99314 5.83936 37955 ft 436 kts 270°
2026-05-06 14:59 40.99720 5.75922 37956 ft 436 kts 269°
2026-05-06 14:59 41.00121 5.67906 37958 ft 436 kts 270°
2026-05-06 15:00 41.00513 5.59963 37949 ft 435 kts 269°
2026-05-06 15:00 41.00902 5.51976 37954 ft 435 kts 269°
2026-05-06 15:01 41.01285 5.43986 37957 ft 435 kts 269°
2026-05-06 15:01 41.01474 5.39992 37781 ft 435 kts 269°
2026-05-06 15:01 41.01665 5.36000 37517 ft 434 kts 269°
2026-05-06 15:01 41.01870 5.32017 37270 ft 434 kts 270°
2026-05-06 15:02 41.02082 5.28030 36996 ft 434 kts 270°
2026-05-06 15:02 41.02294 5.24044 36744 ft 434 kts 270°
2026-05-06 15:02 41.02505 5.20063 36482 ft 434 kts 270°
2026-05-06 15:02 41.02713 5.16073 36232 ft 434 kts 269°
2026-05-06 15:03 41.02918 5.12094 35974 ft 434 kts 269°
2026-05-06 15:03 41.03120 5.08109 35726 ft 434 kts 269°
2026-05-06 15:03 41.03321 5.04122 35471 ft 434 kts 269°
2026-05-06 15:03 41.03520 5.00133 35218 ft 434 kts 269°
2026-05-06 15:04 41.03720 4.96094 35019 ft 434 kts 269°
2026-05-06 15:04 41.04108 4.88178 34956 ft 433 kts 269°
2026-05-06 15:05 41.04494 4.80213 34663 ft 432 kts 269°
2026-05-06 15:05 41.04686 4.76246 34432 ft 433 kts 269°
2026-05-06 15:05 41.04981 4.72279 33909 ft 432 kts 272°
2026-05-06 15:05 41.05394 4.68329 33074 ft 434 kts 273°
2026-05-06 15:06 41.05860 4.64376 32361 ft 434 kts 274°
2026-05-06 15:06 41.06343 4.60434 31954 ft 433 kts 274°
2026-05-06 15:06 41.06811 4.56568 31246 ft 417 kts 274°
2026-05-06 15:06 41.07250 4.52838 30633 ft 406 kts 273°
2026-05-06 15:07 41.07666 4.49134 30070 ft 407 kts 273°
2026-05-06 15:07 41.08066 4.45391 29376 ft 413 kts 273°
2026-05-06 15:07 41.08463 4.41611 28674 ft 415 kts 273°
2026-05-06 15:07 41.08863 4.37841 27989 ft 408 kts 273°
2026-05-06 15:08 41.09257 4.34138 27337 ft 405 kts 273°
2026-05-06 15:08 41.09646 4.30455 26700 ft 403 kts 273°
2026-05-06 15:08 41.10031 4.26796 26070 ft 400 kts 273°
2026-05-06 15:08 41.10414 4.23162 25453 ft 397 kts 273°
2026-05-06 15:09 41.10793 4.19549 24846 ft 394 kts 273°
2026-05-06 15:09 41.11167 4.15975 24273 ft 389 kts 274°
2026-05-06 15:09 41.11536 4.12439 23695 ft 386 kts 274°
2026-05-06 15:09 41.11902 4.08921 23040 ft 383 kts 274°
2026-05-06 15:10 41.12263 4.05434 22364 ft 380 kts 274°
2026-05-06 15:10 41.12620 4.01980 21707 ft 377 kts 274°
2026-05-06 15:10 41.12974 3.98547 21061 ft 374 kts 274°
2026-05-06 15:10 41.13323 3.95146 20427 ft 370 kts 274°
2026-05-06 15:11 41.13668 3.91781 19809 ft 367 kts 274°
2026-05-06 15:11 41.14009 3.88451 19200 ft 358 kts 274°
2026-05-06 15:11 41.14336 3.85266 18622 ft 341 kts 274°
2026-05-06 15:11 41.14648 3.82212 18125 ft 329 kts 274°
2026-05-06 15:12 41.14951 3.79205 17606 ft 329 kts 274°
2026-05-06 15:12 41.15252 3.76196 17072 ft 328 kts 274°
2026-05-06 15:12 41.15556 3.73196 16557 ft 328 kts 275°
2026-05-06 15:12 41.15856 3.70202 16031 ft 327 kts 275°
2026-05-06 15:13 41.16154 3.67213 15527 ft 329 kts 275°
2026-05-06 15:13 41.16454 3.64193 15041 ft 329 kts 276°
2026-05-06 15:13 41.16753 3.61190 14548 ft 327 kts 276°
2026-05-06 15:13 41.17049 3.58209 14073 ft 326 kts 276°
2026-05-06 15:14 41.17379 3.55243 13617 ft 324 kts 281°
2026-05-06 15:14 41.18043 3.52326 13552 ft 341 kts 288°
2026-05-06 15:14 41.18902 3.49326 13329 ft 352 kts 290°
2026-05-06 15:14 41.19814 3.46302 12992 ft 353 kts 290°
2026-05-06 15:15 41.20739 3.43296 12603 ft 351 kts 291°
2026-05-06 15:15 41.21665 3.40310 12210 ft 349 kts 291°
2026-05-06 15:15 41.22586 3.37347 11824 ft 347 kts 291°
2026-05-06 15:15 41.23507 3.34389 11433 ft 345 kts 291°
2026-05-06 15:16 41.24422 3.31451 11062 ft 342 kts 291°
2026-05-06 15:16 41.25317 3.28576 10697 ft 332 kts 291°
2026-05-06 15:16 41.26189 3.25773 10329 ft 324 kts 291°
2026-05-06 15:16 41.27040 3.23036 9965 ft 317 kts 291°
2026-05-06 15:17 41.27870 3.20361 9583 ft 309 kts 291°
2026-05-06 15:17 41.28680 3.17752 9172 ft 302 kts 291°
2026-05-06 15:17 41.29472 3.15196 8786 ft 296 kts 290°
2026-05-06 15:17 41.30246 3.12692 8409 ft 290 kts 290°
2026-05-06 15:18 41.31005 3.10238 8022 ft 285 kts 291°
2026-05-06 15:18 41.31749 3.07831 7737 ft 276 kts 291°
2026-05-06 15:18 41.32466 3.05511 7534 ft 266 kts 291°
2026-05-06 15:18 41.33167 3.03235 7405 ft 266 kts 291°
2026-05-06 15:19 41.33869 3.00956 7286 ft 267 kts 291°
2026-05-06 15:19 41.34571 2.98673 7157 ft 267 kts 291°
2026-05-06 15:19 41.35273 2.96390 7032 ft 266 kts 291°
2026-05-06 15:19 41.35973 2.94114 6920 ft 265 kts 291°
2026-05-06 15:20 41.36669 2.91850 6737 ft 264 kts 291°
2026-05-06 15:20 41.37362 2.89590 6481 ft 263 kts 291°
2026-05-06 15:20 41.38053 2.87336 6325 ft 263 kts 291°
2026-05-06 15:20 41.38743 2.85085 6194 ft 262 kts 291°
2026-05-06 15:21 41.39422 2.82867 6034 ft 262 kts 291°
2026-05-06 15:21 41.40105 2.80635 5946 ft 260 kts 291°
2026-05-06 15:21 41.40790 2.78394 5925 ft 261 kts 291°
2026-05-06 15:21 41.41473 2.76160 5964 ft 261 kts 291°
2026-05-06 15:22 41.42157 2.73918 5983 ft 261 kts 291°
2026-05-06 15:22 41.42839 2.71679 5984 ft 261 kts 291°
2026-05-06 15:22 41.43521 2.69442 5987 ft 260 kts 291°
2026-05-06 15:22 41.44181 2.67276 5980 ft 243 kts 291°
2026-05-06 15:23 41.44795 2.65257 5975 ft 227 kts 291°
2026-05-06 15:23 41.45365 2.63380 5972 ft 211 kts 291°
2026-05-06 15:23 41.45895 2.61590 5976 ft 207 kts 288°
2026-05-06 15:23 41.46131 2.59574 6002 ft 240 kts 267°
2026-05-06 15:24 41.45721 2.57349 5984 ft 248 kts 253°
2026-05-06 15:24 41.45249 2.55242 5781 ft 228 kts 255°
2026-05-06 15:24 41.44806 2.53273 5425 ft 218 kts 255°
2026-05-06 15:24 41.44367 2.51383 5126 ft 212 kts 254°
2026-05-06 15:25 41.43827 2.49436 5002 ft 241 kts 249°
2026-05-06 15:25 41.43137 2.47320 4898 ft 250 kts 248°
2026-05-06 15:25 41.42421 2.45201 4374 ft 253 kts 247°
2026-05-06 15:25 41.41690 2.43046 3977 ft 257 kts 246°
2026-05-06 15:26 41.40957 2.40885 3750 ft 251 kts 247°
2026-05-06 15:26 41.40257 2.38819 3650 ft 238 kts 246°
2026-05-06 15:26 41.39594 2.36871 3565 ft 225 kts 247°
2026-05-06 15:26 41.38968 2.35028 3464 ft 212 kts 246°
2026-05-06 15:27 41.38385 2.33291 3370 ft 199 kts 247°
2026-05-06 15:27 41.37840 2.31668 3312 ft 184 kts 247°
2026-05-06 15:27 41.37327 2.30169 3189 ft 172 kts 246°
2026-05-06 15:27 41.36847 2.28764 3016 ft 162 kts 246°
2026-05-06 15:28 41.36400 2.27449 2807 ft 151 kts 244°
2026-05-06 15:28 41.35976 2.26207 2595 ft 144 kts 244°
2026-05-06 15:28 41.35568 2.25012 2410 ft 139 kts 243°
2026-05-06 15:28 41.35181 2.23874 2231 ft 132 kts 242°
2026-05-06 15:29 41.34799 2.22759 2047 ft 132 kts 241°
2026-05-06 15:29 41.34418 2.21645 1874 ft 133 kts 241°
2026-05-06 15:29 41.34033 2.20517 1709 ft 134 kts 240°
2026-05-06 15:29 41.33647 2.19381 1506 ft 135 kts 240°
2026-05-06 15:30 41.33257 2.18240 1323 ft 135 kts 239°
2026-05-06 15:30 41.32865 2.17095 1151 ft 137 kts 242°
2026-05-06 15:30 41.32473 2.15946 958 ft 135 kts 242°
2026-05-06 15:30 41.32095 2.14840 785 ft 132 kts 242°
2026-05-06 15:31 41.31717 2.13732 600 ft 131 kts 242°
2026-05-06 15:31 41.31336 2.12621 425 ft 134 kts 241°
2026-05-06 15:31 41.30949 2.11490 239 ft 133 kts 242°
2026-05-06 15:32 41.30196 2.09295 27 ft 119 kts 245°
2026-05-06 15:32 41.29924 2.08482 27 ft 76 kts 245°
2026-05-06 15:32 41.29773 2.08027 27 ft 26 kts 251°
2026-05-06 15:32 41.29750 2.07791 28 ft 23 kts 272°
2026-05-06 15:33 41.29771 2.07642 32 ft 15 kts 308°
2026-05-06 15:33 41.29843 2.07592 27 ft 12 kts 335°
2026-05-06 15:33 41.29927 2.07541 27 ft 15 kts 336°
2026-05-06 15:33 41.29957 2.07522 27 ft 12 kts 329°
2026-05-06 15:34 41.29969 2.07466 27 ft 8 kts 255°
2026-05-06 15:34 41.29937 2.07384 27 ft 11 kts 242°
2026-05-06 15:34 41.29898 2.07282 27 ft 13 kts 249°
2026-05-06 15:34 41.29893 2.07264 27 ft 0 kts 248°
2026-05-06 15:36 41.29892 2.07260 27 ft 2 kts 248°
2026-05-06 15:37 41.29880 2.07222 27 ft 6 kts 248°
2026-05-06 15:37 41.29847 2.07177 27 ft 7 kts 193°
2026-05-06 15:37 41.29798 2.07196 27 ft 9 kts 157°
2026-05-06 15:37 41.29740 2.07192 27 ft 9 kts 224°
2026-05-06 15:38 41.29714 2.07140 27 ft 11 kts 243°
2026-05-06 15:38 41.29677 2.07036 27 ft 14 kts 245°
2026-05-06 15:38 41.29589 2.07008 27 ft 9 kts 157°
2026-05-06 15:38 41.29545 2.07033 32 ft 11 kts 156°
2026-05-06 15:39 41.29461 2.07085 27 ft 14 kts 155°
2026-05-06 15:39 41.29378 2.07134 27 ft 12 kts 156°
2026-05-06 15:39 41.29312 2.07190 27 ft 10 kts 120°
2026-05-06 15:39 41.29325 2.07283 27 ft 12 kts 65°
2026-05-06 15:40 41.29366 2.07404 27 ft 17 kts 65°
2026-05-06 15:40 41.29419 2.07557 27 ft 18 kts 65°
2026-05-06 15:40 41.29470 2.07708 27 ft 18 kts 65°
2026-05-06 15:40 41.29518 2.07848 27 ft 15 kts 65°
2026-05-06 15:41 41.29565 2.07985 27 ft 18 kts 65°
2026-05-06 15:41 41.29616 2.08135 27 ft 13 kts 65°
2026-05-06 15:41 41.29618 2.08216 27 ft 9 kts 125°
2026-05-06 15:41 41.29548 2.08269 27 ft 14 kts 155°
2026-05-06 15:42 41.29455 2.08326 27 ft 15 kts 156°
2026-05-06 15:42 41.29355 2.08386 27 ft 15 kts 156°
2026-05-06 15:42 41.29263 2.08442 27 ft 12 kts 155°
2026-05-06 15:42 41.29178 2.08439 27 ft 13 kts 198°
2026-05-06 15:43 41.29084 2.08395 27 ft 15 kts 199°
2026-05-06 15:43 41.28978 2.08347 27 ft 17 kts 199°
2026-05-06 15:43 41.28876 2.08300 27 ft 16 kts 199°
2026-05-06 15:43 41.28787 2.08253 27 ft 12 kts 215°
2026-05-06 15:44 41.28742 2.08153 27 ft 14 kts 246°
2026-05-06 15:44 41.28708 2.08050 27 ft 11 kts 246°
2026-05-06 15:44 41.28680 2.07962 27 ft 7 kts 253°
2026-05-06 15:44 41.28689 2.07895 26 ft 8 kts 306°
2026-05-06 15:45 41.28722 2.07832 27 ft 9 kts 302°
2026-05-06 15:45 41.28745 2.07780 27 ft 4 kts 301°
2026-05-06 15:45 41.28752 2.07764 27 ft 0 kts 301°
2026-05-06 15:45 41.28753 2.07763 27 ft 0 kts 301°